Ontario, OR

12:38 AM MDT on May 27, 2017 (GMT -0600)
Ontario Municipal

Weather History for KONO - April, 2014

Change the Weather History Date:

Sunday, April 27, 2014

  Actual Average Record
Temperature  
Mean Temperature 47 °F 53 °F  
Max Temperature 60 °F 68 °F 93 °F (1987)
Min Temperature 34 °F 38 °F 26 °F (2011)
Degree Days  
Heating Degree Days 18 12  
Month to date heating degree days 358 407  
Since 1 July heating degree days 5702 5707  
Cooling Degree Days 0 0  
Month to date cooling degree days 0 0  
Year to date cooling degree days 0 0  
Moisture  
Dew Point 32 °F    
Average Humidity 55    
Maximum Humidity 85    
Minimum Humidity 24    
Precipitation  
Precipitation 0.02 in 0.03 in 0.85 in (1990)
Month to date precipitation 1.13 0.71  
Year to date precipitation 4.31 3.70  
Sea Level Pressure  
Sea Level Pressure 29.89 in    
Wind  
Wind Speed 9 mph (WNW)    
Max Wind Speed 35 mph    
Max Gust Speed 43 mph    
Visibility 10 miles    
Events Rain    
T = Trace of Precipitation, MM = Missing Value Source: NWS Daily Summary

Daily Weather History Graph

Daily Weather History Graph

Search for Another Location

Airport or City:

Trip Planner

Search our weather history database for the weather conditions in past years. The results will help you decide how hot, cold, wet, or windy it might be!

Date:

Astronomy

Apr. 27, 2014 Rise Set
Actual Time 6:45 AM MDT 8:46 PM MDT
Civil Twilight 6:14 AM MDT 9:18 PM MDT
Nautical Twilight 5:35 AM MDT 9:56 PM MDT
Astronomical Twilight 4:53 AM MDT 10:38 PM MDT
Moon 5:52 AM MDT 7:22 PM MDT
Length of Visible Light 15h 03m
Length of Day
14h 01m
Waning Crescent, 3% of the Moon is Illuminated
Apr 27
Waning Crescent
Apr 29
New
May 6
First Quarter
May 14
Full
May 21
Last Quarter

Hourly Weather History & Observations

Time (MDT) Temp. Windchill Dew Point Humidity Pressure Visibility Wind Dir Wind Speed Gust Speed Precip Events Conditions
12:53 AM 37.0 °F 33.3 °F 30.9 °F 79% 29.81 in 10.0 mi WSW 4.6 mph - N/A   Clear
1:53 AM 37.0 °F 34.5 °F 30.9 °F 79% 29.81 in 10.0 mi WSW 3.5 mph - N/A   Clear
2:53 AM 35.1 °F 32.2 °F 30.0 °F 82% 29.81 in 10.0 mi WSW 3.5 mph - N/A   Clear
3:53 AM 36.0 °F 33.3 °F 30.9 °F 82% 29.81 in 10.0 mi WSW 3.5 mph - N/A   Overcast
4:53 AM 37.0 °F 34.5 °F 32.0 °F 82% 29.83 in 10.0 mi SSW 3.5 mph - N/A   Overcast
6:53 AM 39.0 °F 36.8 °F 34.0 °F 82% 29.84 in 10.0 mi SE 3.5 mph - 0.00 in   Overcast
7:53 AM 39.9 °F - 34.0 °F 79% 29.85 in 10.0 mi Calm Calm - N/A   Partly Cloudy
8:53 AM 44.1 °F 40.1 °F 37.0 °F 76% 29.86 in 10.0 mi SSE 6.9 mph - N/A   Partly Cloudy
9:53 AM 48.0 °F - 37.9 °F 68% 29.86 in 10.0 mi SE 4.6 mph - N/A   Mostly Cloudy
10:53 AM 50.0 °F - 37.9 °F 63% 29.85 in 10.0 mi SSW 9.2 mph - N/A   Overcast
11:44 AM 41.0 °F 31.9 °F 36.0 °F 82% 29.87 in 5.0 mi NW 19.6 mph 42.6 mph 0.02 in Rain Rain
11:53 AM 41.0 °F 33.1 °F 36.0 °F 82% 29.91 in 6.0 mi NW 15.0 mph - 0.02 in Rain Light Rain
12:00 PM 43.0 °F 36.8 °F 37.0 °F 80% 29.86 in 10.0 mi NNW 11.5 mph - 0.00 in   Overcast
12:53 PM 48.9 °F - 39.9 °F 71% 29.89 in 10.0 mi ENE 8.1 mph - 0.00 in   Partly Cloudy
2:53 PM 59.0 °F - 23.0 °F 25% 29.88 in 10.0 mi NW 21.9 mph 34.5 mph N/A   Scattered Clouds
3:53 PM 59.0 °F - 24.1 °F 26% 29.88 in 10.0 mi WNW 20.7 mph 28.8 mph N/A   Clear
4:53 PM 57.0 °F - 28.9 °F 34% 29.89 in 10.0 mi North 13.8 mph 21.9 mph N/A   Scattered Clouds
5:53 PM 55.9 °F - 27.0 °F 33% 29.90 in 10.0 mi North 6.9 mph - N/A   Partly Cloudy
6:53 PM 55.9 °F - 27.0 °F 33% 29.91 in 10.0 mi North 12.7 mph 19.6 mph N/A   Clear
7:53 PM 51.1 °F - 28.9 °F 43% 29.96 in 10.0 mi NNW 15.0 mph - N/A   Clear
8:53 PM 46.0 °F 40.6 °F 32.0 °F 58% 30.00 in 10.0 mi NNW 11.5 mph - N/A   Overcast
9:53 PM 45.0 °F 40.6 °F 33.1 °F 63% 30.04 in 10.0 mi WSW 8.1 mph - N/A   Overcast
11:53 PM 39.0 °F 34.8 °F 34.0 °F 82% 30.11 in 10.0 mi West 5.8 mph - N/A   Mostly Cloudy